Location: Hilton Head Island
(32.2163°N, 80.7526°W)
Time: 21:52:10
(UTC-04:00)

Explorer 7 - Pass Details

Date: 19 February 2026
Orbit: 430 x 541 km, 50.2° (Epoch: 12 March)

Event Time Altitude Azimuth Distance (km) Brightness Sun altitude
Rises 22:19:34 0° 298° (WNW) 2,601 - -51.9°
Reaches altitude 10° 22:22:02 10° 285° (WNW) 1,734 - -52.4°
Maximum altitude 22:25:14 24° 230° (SW) 1,108 - -53.0°
Drops below altitude 10° 22:28:31 10° 175° (S) 1,771 - -53.6°
Sets 22:31:04 0° 162° (SSE) 2,670 - -54.1°
